Location: Gro�bocka
(50.8204°N, 11.9702°E)
Time: 01:20:53
(UTC+00:00)

USA 215 - Pass Details

Date: 29 October 2020
Orbit: 1102 x 1106 km, 123.0° (Epoch: 20 November)

Event Time Altitude Azimuth Distance (km) Brightness Sun altitude
Exits shadow 19:57:29 48° 285° (WNW) 1,418 4.0 -38.5°
Drops below altitude 10° 20:02:04 10° 300° (WNW) 2,966 6.2 -39.1°
Sets 20:04:34 0° 302° (WNW) 3,927 7.1 -39.4°
